Regional Weather Roundup
Issued by NWS Midland/Odessa, TX

Home | Current Version | Previous Version | Text Only | Print | Product List | Glossary On
Versions: 1 2 3 4 5 6 7 8 9 10 11 12 13 14 15 16 17 18 19 20 21 22 23 24 25 26 27 28 29 30 31 32 33 34 35 36 37 38 39 40 41 42 43 44 45 46 47 48 49 50
000
ASUS44 KMAF 230110
RWRMAF
MIDLAND AREA WEATHER ROUNDUP
NATIONAL WEATHER SERVICE MIDLAND TX
700 PM CST THU FEB 22 2018

...IN SOUTHWEST TEXAS AND SOUTHEAST NEW MEXICO...

CITY           SKY/WX    TMP DP  RH WIND       PRES   REMARKS
ALPINE         CLOUDY    58  14  17 S5        30.16R
ANDREWS        FAIR      43  34  70 S5        30.14R
ARTESIA        PTCLDY    57  21  24 SW15      30.05R
BIG SPRING     PTCLDY    40  36  88 CALM      30.18R
CARLSBAD       CLEAR     48  30  49 S10       30.08R
DRYDEN           N/A     50  37  61 E7        30.12R
FORT STOCKTON  CLOUDY    46  33  60 NE6       30.12R
GUAD PASS      PTCLDY    51  21  30 W24       30.11R
HOBBS          CLEAR     46  30  53 SE12      30.10R
LAMESA         MOCLDY    39  36  87 S10       30.14R WCI  32
MARFA          CLOUDY    55  14  19 SE7       30.12R
MIDLAND AIRPK    N/A     45  35  69 SE5       30.14R
MIDLAND INTL   PTCLDY    45  33  63 E5        30.13R
ODESSA         MOCLDY    45  33  63 E7        30.13R
PECOS          MOCLDY    45  30  55 E3        30.13R
PRESIDIO       FAIR      58  30  34 SW3       30.05S
SEMINOLE       PTCLDY    43  33  65 S8        30.13R WCI  39
SNYDER         CLOUDY    37  35  94 S3        30.16S
WINK           CLOUDY    44  31  60 SE3       30.11S
$$
...OTHER STATIONS IN TEXAS...

CITY           SKY/WX    TMP DP  RH WIND       PRES   REMARKS
ABILENE        CLOUDY    32  32 100 CALM      30.20R
AMARILLO       CLOUDY    44  31  60 S14       30.05R WCI  37
AUSTIN         CLOUDY    44  44 100 N8        30.21R FOG     WCI  39
BROWNSVILLE    CLOUDY    64  63  96 NE9       30.12R
CORPUS CHRISTI DRIZZLE   55  55 100 N9        30.15R FOG
DALLAS FTW     CLOUDY    39  36  89 CALM      30.21S
DEL RIO        CLOUDY    54  45  71 N5        30.14R
EL PASO        PTCLDY    60  18  19 W8        30.06R
HOUSTON INT    LGT RAIN  69  67  93 NW5       30.16R FOG
LUBBOCK        CLOUDY    46  33  60 S12       30.09R
SAN ANGELO     CLOUDY    39  35  86 E3        30.18R
SAN ANTONIO    LGT RAIN  49  47  93 NE6       30.18R FOG
WACO           CLOUDY    39  37  92 N7        30.24R FOG     WCI  34
WICHITA FALLS  FRZ DRZL  32  32 100 CALM      30.15R FOG
$$
...OTHER LOCATIONS IN NEW MEXICO...

CITY           SKY/WX    TMP DP  RH WIND       PRES   REMARKS
ALAMOGORDO     PTCLDY    50  21  32 S6        30.10R
ALBUQUERQUE    PTCLDY    46   9  22 NW6       30.02R
CANNON AFB     PTCLDY    46  23  41 S7        30.05R
CLOVIS         NOT AVBL
HOLLOMAN AFB   PTCLDY    53  19  26 S7        30.11R
ROSWELL        PTCLDY    55  21  26 SW9       30.01R
RUIDOSO        PTCLDY    39  10  30 SW31G39   30.05  WCI  27
SANTA FE       PTCLDY    33  15  47 NW6       30.02R WCI  28
TRUTH OR CONSE PTCLDY    53  -1  11 W12G22    30.03R
TUCUMCARI      CLEAR     50  18  28 SW12      29.98R
$$




USA.gov is the U.S. government's official web portal to all federal, state and local government web resources and services.